Location: Chippewa Lake
(41.0698°N, 81.9010°W)
Time: 22:02:26
(UTC+00:00)

NOSS 3-3 (C) - Pass Details

Date: 09 May 2021
Orbit: 806 x 1406 km, 63.4° (Epoch: 14 June)

Event Time Altitude Azimuth Distance (km) Brightness Sun altitude
Rises 03:04:26 0° 226° (SW) 3,355 6.7 -23.2°
Reaches altitude 10° 03:06:48 10° 230° (SW) 2,463 6.1 -23.4°
Maximum altitude 03:12:23 59° 309° (NW) 1,044 4.4 -24.0°
Drops below altitude 10° 03:18:46 10° 29° (NNE) 2,795 6.7 -24.7°
Sets 03:21:37 0° 34° (NNE) 3,845 7.4 -25.0°
